Time,TemperatureF,DewpointF,PressureIn,WindDirection,WindDirectionDegrees,WindSpeedMPH,WindSpeedGustMPH,Humidity,HourlyPrecipIn,Conditions,Clouds,dailyrainin,SoftwareType,DateUTC
2013-07-31 00:11:00,59.0,55.0,29.95,SSW,207,1.0,2.0,88,0.00,,,0.00,,2013-07-31 05:11:00,
2013-07-31 00:22:00,58.0,55.0,29.95,SW,222,1.0,2.0,90,0.00,,,0.00,,2013-07-31 05:22:00,
2013-07-31 00:32:00,58.0,55.0,29.95,SSW,204,1.0,3.0,91,0.00,,,0.00,,2013-07-31 05:32:00,
2013-07-31 00:42:00,58.0,55.0,29.95,SSW,204,1.0,3.0,91,0.00,,,0.00,,2013-07-31 05:42:00,
2013-07-31 00:52:00,59.0,56.0,29.95,West,281,0.0,2.0,90,0.00,,,0.00,,2013-07-31 05:52:00,
2013-07-31 01:02:00,61.0,59.0,29.96,NW,315,2.0,16.0,93,0.22,,,0.22,,2013-07-31 06:02:00,
2013-07-31 01:12:00,61.0,59.0,29.96,NW,315,2.0,16.0,93,0.22,,,0.22,,2013-07-31 06:12:00,
2013-07-31 01:22:00,62.0,59.0,29.96,West,266,3.0,8.0,91,0.23,,,0.23,,2013-07-31 06:22:00,
2013-07-31 01:32:00,62.0,59.0,29.97,WNW,301,4.0,8.0,91,0.23,,,0.23,,2013-07-31 06:32:00,
2013-07-31 01:42:00,62.0,59.0,29.97,WNW,301,4.0,8.0,91,0.23,,,0.23,,2013-07-31 06:42:00,
2013-07-31 01:53:00,62.0,60.0,29.96,West,274,3.0,7.0,92,0.27,,,0.27,,2013-07-31 06:53:00,
2013-07-31 02:02:00,62.0,59.0,29.96,West,278,4.0,8.0,90,0.05,,,0.27,,2013-07-31 07:02:00,
2013-07-31 02:12:00,62.0,59.0,29.96,West,278,4.0,8.0,90,0.05,,,0.27,,2013-07-31 07:12:00,
2013-07-31 02:22:00,61.0,58.0,29.96,West,260,3.0,7.0,90,0.04,,,0.27,,2013-07-31 07:22:00,
2013-07-31 02:32:00,60.0,58.0,29.96,West,260,2.0,5.0,92,0.04,,,0.27,,2013-07-31 07:32:00,
2013-07-31 02:43:00,60.0,58.0,29.96,West,260,2.0,5.0,92,0.04,,,0.27,,2013-07-31 07:43:00,
2013-07-31 02:52:00,59.0,57.0,29.96,WSW,250,1.0,3.0,92,0.00,,,0.27,,2013-07-31 07:52:00,
2013-07-31 03:02:00,58.0,56.0,29.96,WSW,243,0.0,2.0,93,0.00,,,0.27,,2013-07-31 08:02:00,
2013-07-31 03:12:00,58.0,56.0,29.96,WSW,243,0.0,2.0,93,0.00,,,0.27,,2013-07-31 08:12:00,
2013-07-31 03:22:00,58.0,56.0,29.96,West,262,2.0,6.0,92,0.00,,,0.27,,2013-07-31 08:22:00,
2013-07-31 03:32:00,58.0,56.0,29.96,WSW,251,4.0,6.0,92,0.00,,,0.27,,2013-07-31 08:32:00,
2013-07-31 03:42:00,58.0,56.0,29.96,WSW,251,4.0,6.0,92,0.00,,,0.27,,2013-07-31 08:42:00,
2013-07-31 03:53:00,58.0,56.0,29.96,West,262,2.0,5.0,92,0.00,,,0.27,,2013-07-31 08:53:00,
2013-07-31 04:02:00,57.0,55.0,29.95,WSW,253,3.0,6.0,92,0.00,,,0.27,,2013-07-31 09:02:00,
2013-07-31 04:12:00,57.0,55.0,29.95,WSW,253,3.0,6.0,92,0.00,,,0.27,,2013-07-31 09:12:00,
2013-07-31 04:22:00,58.0,55.0,29.95,West,262,4.0,6.0,90,0.00,,,0.27,,2013-07-31 09:22:00,
2013-07-31 04:32:00,58.0,55.0,29.95,WSW,249,4.0,8.0,90,0.00,,,0.27,,2013-07-31 09:32:00,
2013-07-31 04:43:00,58.0,55.0,29.95,WSW,249,4.0,8.0,90,0.00,,,0.27,,2013-07-31 09:43:00,
2013-07-31 04:52:00,58.0,55.0,29.95,West,280,3.0,6.0,89,0.00,,,0.27,,2013-07-31 09:52:00,
2013-07-31 05:02:00,57.0,54.0,29.95,West,271,3.0,6.0,90,0.00,,,0.27,,2013-07-31 10:02:00,
2013-07-31 05:12:00,57.0,54.0,29.95,West,271,3.0,6.0,90,0.00,,,0.27,,2013-07-31 10:12:00,
2013-07-31 05:22:00,56.0,53.0,29.95,West,269,2.0,5.0,90,0.00,,,0.27,,2013-07-31 10:22:00,
2013-07-31 05:32:00,55.0,52.0,29.96,West,269,2.0,5.0,90,0.00,,,0.27,,2013-07-31 10:32:00,
2013-07-31 05:44:00,55.0,52.0,29.96,West,269,2.0,5.0,90,0.00,,,0.27,,2013-07-31 10:44:00,
2013-07-31 05:52:00,54.0,52.0,29.96,WSW,255,3.0,5.0,93,0.00,,,0.27,,2013-07-31 10:52:00,
2013-07-31 06:03:00,54.0,52.0,29.96,WSW,253,3.0,5.0,92,0.00,,,0.27,,2013-07-31 11:03:00,
2013-07-31 06:12:00,54.0,52.0,29.96,WSW,253,3.0,5.0,92,0.00,,,0.27,,2013-07-31 11:12:00,
2013-07-31 06:22:00,54.0,52.0,29.96,WNW,283,4.0,7.0,93,0.00,,,0.27,,2013-07-31 11:22:00,
2013-07-31 06:33:00,54.0,52.0,29.96,WNW,283,4.0,7.0,93,0.00,,,0.27,,2013-07-31 11:33:00,
2013-07-31 06:43:00,54.0,52.0,29.97,WSW,249,3.0,6.0,93,0.00,,,0.27,,2013-07-31 11:43:00,
2013-07-31 06:52:00,54.0,52.0,29.98,West,259,3.0,6.0,93,0.00,,,0.27,,2013-07-31 11:52:00,
2013-07-31 07:02:00,55.0,52.0,29.98,West,276,2.0,6.0,91,0.00,,,0.27,,2013-07-31 12:02:00,
2013-07-31 07:12:00,55.0,52.0,29.98,West,276,2.0,6.0,91,0.00,,,0.27,,2013-07-31 12:12:00,
2013-07-31 07:22:00,55.0,53.0,29.98,WNW,295,1.0,4.0,92,0.00,,,0.27,,2013-07-31 12:22:00,
2013-07-31 07:32:00,55.0,53.0,29.98,WNW,295,1.0,4.0,92,0.00,,,0.27,,2013-07-31 12:32:00,
2013-07-31 07:43:00,56.0,53.0,29.99,WSW,251,3.0,6.0,91,0.00,,,0.27,,2013-07-31 12:43:00,
2013-07-31 07:52:00,57.0,54.0,29.99,West,266,3.0,6.0,89,0.00,,,0.27,,2013-07-31 12:52:00,
2013-07-31 08:02:00,57.0,54.0,29.99,West,266,3.0,6.0,89,0.00,,,0.27,,2013-07-31 13:02:00,
2013-07-31 08:12:00,59.0,55.0,29.99,West,264,4.0,9.0,86,0.01,,,0.28,,2013-07-31 13:12:00,
2013-07-31 08:22:00,60.0,55.0,29.99,NW,305,6.0,10.0,84,0.01,,,0.28,,2013-07-31 13:22:00,
2013-07-31 08:43:00,61.0,56.0,29.99,West,270,5.0,11.0,84,0.01,,,0.28,,2013-07-31 13:43:00,
2013-07-31 08:53:00,61.0,55.0,29.99,WNW,288,5.0,10.0,82,0.01,,,0.28,,2013-07-31 13:53:00,
2013-07-31 09:02:00,61.0,55.0,29.99,WNW,288,5.0,10.0,82,0.01,,,0.28,,2013-07-31 14:02:00,
2013-07-31 09:12:00,62.0,55.0,29.99,WNW,297,5.0,13.0,78,0.00,,,0.28,,2013-07-31 14:12:00,
2013-07-31 09:22:00,63.0,56.0,29.99,NW,322,7.0,12.0,77,0.00,,,0.28,,2013-07-31 14:22:00,
2013-07-31 09:34:00,63.0,56.0,29.99,NW,322,7.0,12.0,77,0.00,,,0.28,,2013-07-31 14:34:00,
2013-07-31 09:43:00,63.0,55.0,29.99,WNW,301,6.0,14.0,76,0.00,,,0.28,,2013-07-31 14:43:00,
2013-07-31 09:53:00,64.0,56.0,29.98,WNW,295,7.0,14.0,74,0.00,,,0.28,,2013-07-31 14:53:00,
2013-07-31 10:02:00,64.0,56.0,29.98,WNW,295,7.0,14.0,74,0.00,,,0.28,,2013-07-31 15:02:00,
2013-07-31 10:12:00,65.0,56.0,29.99,NW,325,8.0,14.0,72,0.00,,,0.28,,2013-07-31 15:12:00,
2013-07-31 10:22:00,65.0,55.0,29.99,WNW,294,8.0,13.0,69,0.00,,,0.28,,2013-07-31 15:22:00,
2013-07-31 10:33:00,65.0,55.0,29.99,WNW,294,8.0,13.0,69,0.00,,,0.28,,2013-07-31 15:33:00,
2013-07-31 10:43:00,65.0,55.0,29.98,NW,321,6.0,13.0,69,0.00,,,0.28,,2013-07-31 15:43:00,
2013-07-31 10:52:00,66.0,55.0,29.98,WNW,296,8.0,15.0,68,0.00,,,0.28,,2013-07-31 15:52:00,
2013-07-31 11:02:00,66.0,55.0,29.98,WNW,296,8.0,15.0,68,0.00,,,0.28,,2013-07-31 16:02:00,
2013-07-31 11:12:00,66.0,54.0,29.99,NW,307,7.0,16.0,65,0.00,,,0.28,,2013-07-31 16:12:00,
2013-07-31 11:22:00,66.0,54.0,29.99,WNW,287,8.0,15.0,65,0.00,,,0.28,,2013-07-31 16:22:00,
2013-07-31 11:33:00,66.0,54.0,29.99,WNW,287,8.0,15.0,65,0.00,,,0.28,,2013-07-31 16:33:00,
2013-07-31 11:44:00,67.0,54.0,29.99,NW,315,8.0,14.0,63,0.00,,,0.28,,2013-07-31 16:44:00,
2013-07-31 11:52:00,67.0,54.0,29.99,NW,309,10.0,18.0,62,0.00,,,0.28,,2013-07-31 16:52:00,
2013-07-31 12:02:00,67.0,54.0,29.99,NW,309,10.0,18.0,62,0.00,,,0.28,,2013-07-31 17:02:00,
2013-07-31 12:13:00,67.0,53.0,29.99,NW,321,10.0,18.0,60,0.00,,,0.28,,2013-07-31 17:13:00,
2013-07-31 12:22:00,68.0,54.0,29.98,WNW,290,9.0,18.0,60,0.00,,,0.28,,2013-07-31 17:22:00,
2013-07-31 12:33:00,68.0,54.0,29.98,WNW,290,9.0,18.0,60,0.00,,,0.28,,2013-07-31 17:33:00,
2013-07-31 12:43:00,69.0,55.0,29.98,NW,308,7.0,14.0,62,0.00,,,0.28,,2013-07-31 17:43:00,
2013-07-31 12:53:00,68.0,53.0,29.98,NNW,338,9.0,17.0,59,0.00,,,0.28,,2013-07-31 17:53:00,
2013-07-31 13:02:00,68.0,53.0,29.98,NNW,338,9.0,17.0,59,0.00,,,0.28,,2013-07-31 18:02:00,
2013-07-31 13:12:00,69.0,52.0,29.97,WNW,297,10.0,16.0,55,0.00,,,0.28,,2013-07-31 18:12:00,
2013-07-31 13:22:00,69.0,52.0,29.97,NW,305,8.0,15.0,55,0.00,,,0.28,,2013-07-31 18:22:00,
2013-07-31 13:32:00,69.0,52.0,29.97,NW,305,8.0,15.0,55,0.00,,,0.28,,2013-07-31 18:32:00,
2013-07-31 13:43:00,69.0,52.0,29.97,NW,313,8.0,17.0,54,0.00,,,0.28,,2013-07-31 18:43:00,
2013-07-31 13:52:00,69.0,54.0,29.97,WNW,295,7.0,14.0,58,0.00,,,0.28,,2013-07-31 18:52:00,
2013-07-31 14:02:00,69.0,54.0,29.97,WNW,295,7.0,14.0,58,0.00,,,0.28,,2013-07-31 19:02:00,
2013-07-31 14:12:00,69.0,53.0,29.97,WNW,297,6.0,15.0,57,0.00,,,0.28,,2013-07-31 19:12:00,
2013-07-31 14:22:00,70.0,54.0,29.97,WNW,302,6.0,16.0,56,0.00,,,0.28,,2013-07-31 19:22:00,
2013-07-31 14:32:00,70.0,54.0,29.97,WNW,302,6.0,16.0,56,0.00,,,0.28,,2013-07-31 19:32:00,
2013-07-31 14:43:00,70.0,52.0,29.97,NW,316,6.0,14.0,53,0.00,,,0.28,,2013-07-31 19:43:00,
2013-07-31 14:52:00,69.0,52.0,29.97,NW,307,9.0,16.0,54,0.00,,,0.28,,2013-07-31 19:52:00,
2013-07-31 15:02:00,69.0,52.0,29.97,NW,307,9.0,16.0,54,0.00,,,0.28,,2013-07-31 20:02:00,
2013-07-31 15:12:00,71.0,52.0,29.96,NW,311,10.0,17.0,51,0.00,,,0.28,,2013-07-31 20:12:00,
2013-07-31 15:22:00,71.0,52.0,29.96,NW,311,10.0,17.0,51,0.00,,,0.28,,2013-07-31 20:22:00,
2013-07-31 15:32:00,71.0,52.0,29.97,WNW,300,8.0,19.0,51,0.00,,,0.28,,2013-07-31 20:32:00,
2013-07-31 15:42:00,72.0,52.0,29.96,NW,313,8.0,16.0,49,0.00,,,0.28,,2013-07-31 20:42:00,
2013-07-31 15:52:00,72.0,52.0,29.96,WNW,300,9.0,15.0,50,0.00,,,0.28,,2013-07-31 20:52:00,
2013-07-31 16:02:00,72.0,52.0,29.96,WNW,300,9.0,15.0,50,0.00,,,0.28,,2013-07-31 21:02:00,
2013-07-31 16:12:00,71.0,51.0,29.96,NW,305,9.0,19.0,49,0.00,,,0.28,,2013-07-31 21:12:00,
2013-07-31 16:22:00,73.0,52.0,29.96,WNW,302,10.0,17.0,48,0.00,,,0.28,,2013-07-31 21:22:00,
2013-07-31 16:32:00,73.0,52.0,29.96,WNW,302,10.0,17.0,48,0.00,,,0.28,,2013-07-31 21:32:00,
2013-07-31 16:43:00,72.0,51.0,29.95,NW,324,8.0,17.0,48,0.00,,,0.28,,2013-07-31 21:43:00,
2013-07-31 16:53:00,71.0,50.0,29.95,WNW,288,8.0,17.0,48,0.00,,,0.28,,2013-07-31 21:53:00,
2013-07-31 17:02:00,71.0,50.0,29.95,WNW,288,8.0,17.0,48,0.00,,,0.28,,2013-07-31 22:02:00,
2013-07-31 17:12:00,71.0,51.0,29.95,WNW,300,6.0,15.0,50,0.00,,,0.28,,2013-07-31 22:12:00,
2013-07-31 17:22:00,72.0,51.0,29.95,NNW,333,7.0,17.0,48,0.00,,,0.28,,2013-07-31 22:22:00,
2013-07-31 17:33:00,72.0,51.0,29.95,NNW,333,7.0,17.0,48,0.00,,,0.28,,2013-07-31 22:33:00,
2013-07-31 17:43:00,71.0,52.0,29.95,WNW,290,6.0,13.0,52,0.00,,,0.28,,2013-07-31 22:43:00,
2013-07-31 17:53:00,72.0,53.0,29.95,West,280,6.0,11.0,52,0.00,,,0.28,,2013-07-31 22:53:00,
2013-07-31 18:02:00,72.0,53.0,29.95,West,280,6.0,11.0,52,0.00,,,0.28,,2013-07-31 23:02:00,
2013-07-31 18:12:00,72.0,54.0,29.95,WNW,295,6.0,13.0,53,0.00,,,0.28,,2013-07-31 23:12:00,
2013-07-31 18:22:00,72.0,53.0,29.94,NW,315,8.0,16.0,51,0.00,,,0.28,,2013-07-31 23:22:00,
2013-07-31 18:32:00,72.0,53.0,29.94,NW,315,8.0,16.0,51,0.00,,,0.28,,2013-07-31 23:32:00,
2013-07-31 18:42:00,71.0,54.0,29.93,WNW,293,6.0,12.0,54,0.00,,,0.28,,2013-07-31 23:42:00,
2013-07-31 18:52:00,73.0,52.0,29.93,WSW,257,9.0,16.0,48,0.00,,,0.28,,2013-07-31 23:52:00,
2013-07-31 19:02:00,73.0,52.0,29.93,WSW,257,9.0,16.0,48,0.00,,,0.28,,2013-08-01 00:02:00,
2013-07-31 19:12:00,73.0,53.0,29.93,WNW,285,7.0,15.0,49,0.00,,,0.28,,2013-08-01 00:12:00,
2013-07-31 19:22:00,72.0,51.0,29.93,WNW,286,8.0,12.0,48,0.00,,,0.28,,2013-08-01 00:22:00,
2013-07-31 19:32:00,72.0,51.0,29.93,WNW,286,8.0,12.0,48,0.00,,,0.28,,2013-08-01 00:32:00,
2013-07-31 19:43:00,72.0,53.0,29.93,WSW,256,4.0,9.0,52,0.00,,,0.28,,2013-08-01 00:43:00,
2013-07-31 19:52:00,70.0,54.0,29.92,West,273,2.0,6.0,57,0.00,,,0.28,,2013-08-01 00:52:00,
2013-07-31 20:02:00,70.0,54.0,29.92,West,273,2.0,6.0,57,0.00,,,0.28,,2013-08-01 01:02:00,
2013-07-31 20:12:00,72.0,54.0,29.92,NW,311,3.0,6.0,54,0.00,,,0.28,,2013-08-01 01:12:00,
2013-07-31 20:22:00,71.0,54.0,29.92,WNW,300,2.0,5.0,56,0.00,,,0.28,,2013-08-01 01:22:00,
2013-07-31 20:33:00,71.0,54.0,29.92,WNW,300,2.0,5.0,56,0.00,,,0.28,,2013-08-01 01:33:00,
2013-07-31 20:43:00,70.0,55.0,29.91,West,280,1.0,4.0,59,0.00,,,0.28,,2013-08-01 01:43:00,
2013-07-31 20:53:00,69.0,56.0,29.91,West,276,0.0,1.0,63,0.00,,,0.28,,2013-08-01 01:53:00,
2013-07-31 21:02:00,69.0,56.0,29.91,West,276,0.0,1.0,63,0.00,,,0.28,,2013-08-01 02:02:00,
2013-07-31 21:12:00,67.0,56.0,29.91,WSW,245,0.0,1.0,67,0.00,,,0.28,,2013-08-01 02:12:00,
2013-07-31 21:22:00,64.0,55.0,29.91,SW,231,1.0,2.0,73,0.00,,,0.28,,2013-08-01 02:22:00,
2013-07-31 21:32:00,64.0,55.0,29.91,SW,231,1.0,2.0,73,0.00,,,0.28,,2013-08-01 02:32:00,
2013-07-31 21:43:00,61.0,54.0,29.91,SW,228,0.0,1.0,77,0.00,,,0.28,,2013-08-01 02:43:00,
2013-07-31 21:52:00,60.0,54.0,29.92,SW,231,0.0,1.0,80,0.00,,,0.28,,2013-08-01 02:52:00,
2013-07-31 22:02:00,60.0,54.0,29.92,SW,231,0.0,1.0,80,0.00,,,0.28,,2013-08-01 03:02:00,
2013-07-31 22:12:00,58.0,53.0,29.92,WSW,257,0.0,1.0,84,0.00,,,0.28,,2013-08-01 03:12:00,
2013-07-31 22:22:00,58.0,54.0,29.92,WSW,255,0.0,1.0,85,0.00,,,0.28,,2013-08-01 03:22:00,
2013-07-31 22:32:00,58.0,54.0,29.92,WSW,255,0.0,1.0,85,0.00,,,0.28,,2013-08-01 03:32:00,
2013-07-31 22:43:00,57.0,53.0,29.92,SW,235,0.0,2.0,85,0.00,,,0.28,,2013-08-01 03:43:00,
2013-07-31 22:53:00,57.0,53.0,29.93,SW,225,1.0,2.0,85,0.00,,,0.28,,2013-08-01 03:53:00,
2013-07-31 23:02:00,57.0,53.0,29.93,SW,225,1.0,2.0,85,0.00,,,0.28,,2013-08-01 04:02:00,
2013-07-31 23:12:00,56.0,52.0,29.93,SW,219,1.0,2.0,85,0.00,,,0.28,,2013-08-01 04:12:00,
2013-07-31 23:22:00,56.0,52.0,29.92,SSW,210,1.0,2.0,86,0.00,,,0.28,,2013-08-01 04:22:00,
2013-07-31 23:33:00,56.0,52.0,29.92,SSW,210,1.0,2.0,86,0.00,,,0.28,,2013-08-01 04:33:00,
2013-07-31 23:43:00,56.0,52.0,29.92,SW,235,0.0,1.0,86,0.00,,,0.28,,2013-08-01 04:43:00,
2013-07-31 23:52:00,55.0,51.0,29.92,WSW,239,0.0,2.0,86,0.00,,,0.28,,2013-08-01 04:52:00,